Welcome to Des Moines Iowa Weather. I am an independent private personal weather station on the Northwest Side of Des Moines, Iowa. Just East of Windsor Heights and just West of Glendale . This site is also mobile friendly.

There are no active watches, warnings or advisories


Visit our other weather sites:

Historical Data

Weather Station Setup



Weather Underground History page Text

Daily Summary for November 17, 2017 Units:  English    Metric   Both
« Previous Day
Next Day »
Daily Weekly Monthly Yearly Custom
  High: Low: Average:
Temperature: 50.6 °F 34.7 °F 45 °F
Dew Point: 49.0 °F 30.0 °F 41.3 °F
Humidity: 96 % 72 % 87 %
Wind Speed: 7.0 mph 0.0 mph 1.7 mph
Wind Gust: 11.0 mph - -
Wind:- - SE
Pressure: 29.99 in 29.53 in -
Precipitation: 0.00 in    
Historical Graphs
 
 
Tabular Data for November 17, 2017
Time Temperature Dew Point Pressure Wind Wind Speed Wind Gust Humidity Rainfall Rate (Hourly)
00:09 34.7 °F 30.0 °F 29.99 in SE 2.0 mph 9.0 mph 83 % 0.00 in
00:14 34.7 °F 30.0 °F 29.99 in SSE 1.0 mph 6.0 mph 83 % 0.00 in
00:29 35.0 °F 30.0 °F 29.98 in SSE 2.0 mph 7.0 mph 83 % 0.00 in
00:45 35.4 °F 31.0 °F 29.97 in SSE 2.0 mph 6.0 mph 83 % 0.00 in
01:00 35.9 °F 31.0 °F 29.96 in SSE 2.0 mph 8.0 mph 82 % 0.00 in
01:16 36.1 °F 31.0 °F 29.95 in Calm   7.0 mph 81 % 0.00 in
01:30 36.6 °F 31.0 °F 29.94 in SE 3.0 mph 5.0 mph 80 % 0.00 in
01:45 37.1 °F 31.0 °F 29.94 in SSE 3.0 mph 9.0 mph 79 % 0.00 in
02:00 37.5 °F 32.0 °F 29.93 in South 2.0 mph 6.0 mph 79 % 0.00 in
02:15 38.0 °F 31.0 °F 29.92 in SSE 6.0 mph 8.0 mph 77 % 0.00 in
02:30 38.6 °F 32.0 °F 29.92 in SSE 4.0 mph 7.0 mph 76 % 0.00 in
02:45 39.1 °F 32.0 °F 29.91 in SE 2.0 mph 10.0 mph 75 % 0.00 in
03:00 39.5 °F 32.0 °F 29.90 in SE 2.0 mph 9.0 mph 74 % 0.00 in
03:15 39.9 °F 32.0 °F 29.90 in South 4.0 mph 8.0 mph 74 % 0.00 in
03:30 40.2 °F 32.0 °F 29.87 in SSE 3.0 mph 7.0 mph 73 % 0.00 in
03:45 40.4 °F 32.0 °F 29.86 in SSE 7.0 mph 8.0 mph 73 % 0.00 in
04:00 40.8 °F 33.0 °F 29.86 in SSE 1.0 mph 9.0 mph 73 % 0.00 in
04:15 41.1 °F 33.0 °F 29.86 in South 1.0 mph 7.0 mph 73 % 0.00 in
04:30 41.5 °F 33.0 °F 29.86 in SSE 2.0 mph 6.0 mph 72 % 0.00 in
04:45 41.8 °F 34.0 °F 29.85 in SE 2.0 mph 9.0 mph 73 % 0.00 in
05:00 42.0 °F 34.0 °F 29.85 in South 5.0 mph 9.0 mph 73 % 0.00 in
05:15 42.3 °F 34.0 °F 29.84 in South 2.0 mph 10.0 mph 73 % 0.00 in
05:30 42.4 °F 34.0 °F 29.84 in Calm   6.0 mph 73 % 0.00 in
05:45 42.3 °F 34.0 °F 29.83 in SE 1.0 mph 6.0 mph 73 % 0.00 in
06:00 42.2 °F 34.0 °F 29.82 in SSE 2.0 mph 5.0 mph 74 % 0.00 in
06:15 42.1 °F 35.0 °F 29.82 in SE 2.0 mph 5.0 mph 75 % 0.00 in
06:30 42.0 °F 35.0 °F 29.81 in Calm   8.0 mph 76 % 0.00 in
06:45 42.1 °F 35.0 °F 29.81 in South 2.0 mph 7.0 mph 77 % 0.00 in
07:00 42.2 °F 36.0 °F 29.80 in SSE 2.0 mph 6.0 mph 78 % 0.00 in
07:09 42.2 °F 36.0 °F 29.79 in SE 1.0 mph 7.0 mph 78 % 0.00 in
07:24 42.4 °F 36.0 °F 29.79 in SSE 2.0 mph 7.0 mph 78 % 0.00 in
07:39 42.6 °F 37.0 °F 29.77 in SSE 4.0 mph 8.0 mph 79 % 0.00 in
07:54 42.8 °F 37.0 °F 29.77 in South 2.0 mph 9.0 mph 80 % 0.00 in
08:09 43.1 °F 38.0 °F 29.76 in SSE 1.0 mph 8.0 mph 81 % 0.00 in
08:24 43.3 °F 39.0 °F 29.76 in SSE 3.0 mph 8.0 mph 83 % 0.00 in
08:39 43.6 °F 39.0 °F 29.76 in SSE 3.0 mph 8.0 mph 84 % 0.00 in
08:54 43.8 °F 39.0 °F 29.75 in SSE 1.0 mph 8.0 mph 84 % 0.00 in
09:09 44.1 °F 40.0 °F 29.75 in SE 4.0 mph 8.0 mph 85 % 0.00 in
09:24 44.4 °F 40.0 °F 29.75 in SSE 1.0 mph 6.0 mph 85 % 0.00 in
09:39 44.7 °F 41.0 °F 29.74 in SE 3.0 mph 6.0 mph 85 % 0.00 in
09:54 45.2 °F 41.0 °F 29.73 in South 2.0 mph 8.0 mph 86 % 0.00 in
10:09 45.4 °F 42.0 °F 29.72 in South 1.0 mph 7.0 mph 86 % 0.00 in
10:24 45.6 °F 42.0 °F 29.71 in SSE 5.0 mph 6.0 mph 87 % 0.00 in
10:40 45.5 °F 42.0 °F 29.70 in SE 2.0 mph 7.0 mph 88 % 0.00 in
10:55 45.7 °F 43.0 °F 29.69 in SSW 4.0 mph 8.0 mph 89 % 0.00 in
11:10 45.9 °F 43.0 °F 29.68 in South 5.0 mph 7.0 mph 89 % 0.00 in
11:40 46.4 °F 44.0 °F 29.65 in South 2.0 mph 8.0 mph 90 % 0.00 in
11:55 46.7 °F 44.0 °F 29.64 in SSE 3.0 mph 7.0 mph 91 % 0.00 in
12:10 46.5 °F 44.0 °F 29.63 in South 2.0 mph 11.0 mph 91 % 0.00 in
12:25 46.5 °F 44.0 °F 29.62 in South 2.0 mph 7.0 mph 92 % 0.00 in
12:40 46.6 °F 44.0 °F 29.60 in South 2.0 mph 8.0 mph 92 % 0.00 in
12:50 46.7 °F 45.0 °F 29.59 in SE 3.0 mph 7.0 mph 92 % 0.00 in
13:06 46.9 °F 45.0 °F 29.58 in West 1.0 mph 6.0 mph 93 % 0.00 in
13:21 47.3 °F 45.0 °F 29.57 in South 3.0 mph 8.0 mph 93 % 0.00 in
13:35 47.6 °F 46.0 °F 29.56 in South 1.0 mph 5.0 mph 94 % 0.00 in
13:44 47.8 °F 46.0 °F 29.56 in SSE 2.0 mph 7.0 mph 94 % 0.00 in
14:00 48.3 °F 47.0 °F 29.54 in SSE 3.0 mph 7.0 mph 94 % 0.00 in
14:15 48.7 °F 47.0 °F 29.55 in SSE 2.0 mph 3.0 mph 94 % 0.00 in
14:30 49.0 °F 47.0 °F 29.55 in Calm   2.0 mph 94 % 0.00 in
14:45 49.3 °F 48.0 °F 29.55 in Calm   1.0 mph 94 % 0.00 in
15:00 49.6 °F 48.0 °F 29.55 in Calm   5.0 mph 94 % 0.00 in
15:15 49.9 °F 48.0 °F 29.55 in Calm   3.0 mph 94 % 0.00 in
15:30 50.1 °F 49.0 °F 29.54 in Calm   2.0 mph 94 % 0.00 in
15:45 50.3 °F 49.0 °F 29.54 in Calm   1.0 mph 94 % 0.00 in
16:00 50.3 °F 49.0 °F 29.54 in Calm   2.0 mph 94 % 0.00 in
16:15 50.5 °F 49.0 °F 29.54 in Calm     94 % 0.00 in
16:30 50.6 °F 49.0 °F 29.54 in Calm     94 % 0.00 in
16:45 50.6 °F 49.0 °F 29.54 in Calm     94 % 0.00 in
17:00 50.5 °F 49.0 °F 29.53 in Calm     94 % 0.00 in
17:15 50.4 °F 49.0 °F 29.54 in Calm     94 % 0.00 in
17:30 50.3 °F 49.0 °F 29.54 in Calm     94 % 0.00 in
17:45 50.2 °F 49.0 °F 29.54 in Calm     94 % 0.00 in
18:00 50.2 °F 49.0 °F 29.54 in Calm     94 % 0.00 in
18:15 50.1 °F 49.0 °F 29.54 in Calm     94 % 0.00 in
18:30 50.1 °F 49.0 °F 29.54 in Calm     94 % 0.00 in
18:45 50.0 °F 48.0 °F 29.54 in Calm     94 % 0.00 in
19:00 49.9 °F 48.0 °F 29.54 in Calm     94 % 0.00 in
19:15 49.9 °F 49.0 °F 29.55 in Calm     95 % 0.00 in
19:30 49.8 °F 48.0 °F 29.55 in Calm     94 % 0.00 in
19:45 49.7 °F 48.0 °F 29.56 in Calm   3.0 mph 95 % 0.00 in
20:00 49.5 °F 48.0 °F 29.56 in Calm   3.0 mph 95 % 0.00 in
20:15 49.2 °F 48.0 °F 29.55 in Calm     95 % 0.00 in
20:30 49.0 °F 48.0 °F 29.55 in Calm   1.0 mph 95 % 0.00 in
20:45 48.5 °F 47.0 °F 29.55 in Calm   4.0 mph 95 % 0.00 in
21:23 48.0 °F 47.0 °F 29.54 in NE 1.0 mph 2.0 mph 95 % 0.00 in
21:36 47.8 °F 47.0 °F 29.55 in NE 1.0 mph 3.0 mph 96 % 0.00 in
21:45 47.4 °F 46.0 °F 29.55 in Calm   4.0 mph 95 % 0.00 in
22:00 47.1 °F 46.0 °F 29.55 in Calm   4.0 mph 95 % 0.00 in
22:15 47.0 °F 46.0 °F 29.55 in North 1.0 mph 5.0 mph 96 % 0.00 in
22:30 46.5 °F 46.0 °F 29.54 in ENE 1.0 mph 5.0 mph 96 % 0.00 in
22:45 46.3 °F 45.0 °F 29.54 in NE 1.0 mph 6.0 mph 96 % 0.00 in
23:00 46.3 °F 45.0 °F 29.53 in NNE 2.0 mph 4.0 mph 96 % 0.00 in
23:16 46.2 °F 45.0 °F 29.53 in NE 7.0 mph 8.0 mph 96 % 0.00 in
23:30 46.0 °F 45.0 °F 29.54 in North 2.0 mph 8.0 mph 96 % 0.00 in
23:45 45.6 °F 45.0 °F 29.54 in NE 4.0 mph 11.0 mph 96 % 0.00 in
23:50 45.5 °F 45.0 °F 29.55 in NNE 2.0 mph 11.0 mph 96 % 0.00 in
Des Moines Weather and Climate
Compliments of Weather Underground - 3 mb

Script developed by  Jim McMurry - jmcmurry@mwt.net Adapted for the template by  Wim van der Kuil - Leuven-Template.eu

You find our weather info also at:

Weather Underground

Equipment we use:

Weather-station
Davis VP2 Plus

Weather-program
Davis Weatherlink.Com

Weather-server
iMac (Retina 4K, 21.5-inch, Late 2015)

Provider
Hostmonster.com

Davis VP2 Plus

Davis Weatherlink.Com

iMac (Retina 4K, 21.5-inch, Late 2015)

Hostmonster.com